Wise, VA

8:25 PM EDT on August 16, 2017 (GMT -0400)
Lonesome Pine

Weather History for KLNP - March, 2011

Change the Weather History Date:

Saturday, March 5, 2011

  Actual Average Record
Temperature  
Mean Temperature 52 °F -  
Max Temperature 55 °F 46 °F 66 °F (2004)
Min Temperature 48 °F 29 °F 14 °F (2015)
Degree Days  
Heating Degree Days 14    
Growing Degree Days 2 (Base 50)    
Moisture  
Dew Point 43 °F    
Average Humidity 75    
Maximum Humidity 94    
Minimum Humidity 62    
Precipitation  
Precipitation 0.00 in - - ()
Sea Level Pressure  
Sea Level Pressure 30.11 in    
Wind  
Wind Speed 16 mph (SSE)    
Max Wind Speed 23 mph    
Max Gust Speed 32 mph    
Visibility 9 miles    
Events      
Averages and records for this station are not official NWS values.
T = Trace of Precipitation, MM = Missing Value Source: NWS Daily Summary

Daily Weather History Graph

Daily Weather History Graph

Search for Another Location

Airport or City:

Trip Planner

Search our weather history database for the weather conditions in past years. The results will help you decide how hot, cold, wet, or windy it might be!

Date:

Astronomy

Mar. 05, 2011 Rise Set
Actual Time 6:55 AM EST 6:27 PM EST
Civil Twilight 6:29 AM EST 6:53 PM EST
Nautical Twilight 5:59 AM EST 7:24 PM EST
Astronomical Twilight 5:29 AM EST 7:54 PM EST
Moon 6:55 AM EST (3/5) 7:30 PM EST (3/5)
Length of Visible Light 12h 24m
Length of Day
11h 32m
New Moon, 1% of the Moon is Illuminated
Mar 5
New Moon
Mar 12
First Quarter
Mar 19
Full
Mar 26
Last Quarter
Apr 3
New

Hourly Weather History & Observations

Time (EST) Temp. Dew Point Humidity Pressure Visibility Wind Dir Wind Speed Gust Speed Precip Events Conditions
12:18 AM 48.2 °F 35.6 °F 62% 30.25 in 10.0 mi South 13.8 mph 19.6 mph N/A   Clear
12:38 AM 48.2 °F 37.4 °F 66% 30.24 in 10.0 mi South 11.5 mph 20.7 mph N/A   Clear
12:58 AM 48.2 °F 37.4 °F 66% 30.23 in 10.0 mi South 13.8 mph 21.9 mph N/A   Clear
1:18 AM 48.2 °F 37.4 °F 66% 30.22 in 10.0 mi SSE 16.1 mph 24.2 mph N/A   Clear
1:38 AM 48.2 °F 37.4 °F 66% 30.22 in 10.0 mi SSE 15.0 mph 24.2 mph N/A   Clear
1:58 AM 48.2 °F 37.4 °F 66% 30.20 in 10.0 mi South 21.9 mph 26.5 mph N/A   Clear
2:18 AM 48.2 °F 37.4 °F 66% 30.20 in 10.0 mi SSE 17.3 mph 28.8 mph N/A   Clear
2:38 AM 48.2 °F 37.4 °F 66% 30.19 in 10.0 mi SSE 19.6 mph 28.8 mph N/A   Clear
2:58 AM 48.2 °F 37.4 °F 66% 30.18 in 10.0 mi SSE 18.4 mph 31.1 mph N/A   Clear
3:18 AM 48.2 °F 37.4 °F 66% 30.18 in 10.0 mi SSE 20.7 mph 28.8 mph N/A   Clear
3:38 AM 48.2 °F 37.4 °F 66% 30.17 in 10.0 mi SSE 19.6 mph 27.6 mph N/A   Clear
3:58 AM 48.2 °F 37.4 °F 66% 30.16 in 10.0 mi South 21.9 mph 32.2 mph N/A   Clear
4:18 AM 48.2 °F 37.4 °F 66% 30.17 in 10.0 mi SSE 19.6 mph 29.9 mph N/A   Clear
4:38 AM 48.2 °F 37.4 °F 66% 30.16 in 10.0 mi South 20.7 mph 32.2 mph N/A   Clear
5:18 AM 48.2 °F 37.4 °F 66% 30.16 in 10.0 mi SSE 23.0 mph 32.2 mph N/A   Clear
5:58 AM 48.2 °F 37.4 °F 66% 30.15 in 10.0 mi SSE 18.4 mph 25.3 mph N/A   Clear
6:18 AM 48.2 °F 37.4 °F 66% 30.16 in 10.0 mi SSE 18.4 mph 21.9 mph N/A   Scattered Clouds
6:38 AM 48.2 °F 37.4 °F 66% 30.15 in 10.0 mi SSE 16.1 mph 26.5 mph N/A   Clear
6:58 AM 48.2 °F 37.4 °F 66% 30.16 in 10.0 mi SSE 17.3 mph 26.5 mph N/A   Scattered Clouds
7:18 AM 48.2 °F 37.4 °F 66% 30.15 in 10.0 mi SSE 17.3 mph 29.9 mph N/A   Scattered Clouds
7:38 AM 48.2 °F 37.4 °F 66% 30.15 in 10.0 mi South 19.6 mph 28.8 mph N/A   Mostly Cloudy
7:58 AM 48.2 °F 37.4 °F 66% 30.16 in 10.0 mi South 18.4 mph 26.5 mph N/A   Scattered Clouds
8:18 AM 50.0 °F 39.2 °F 66% 30.16 in 10.0 mi South 17.3 mph 25.3 mph N/A   Mostly Cloudy
8:38 AM 50.0 °F 39.2 °F 66% 30.16 in 10.0 mi South 17.3 mph 28.8 mph N/A   Scattered Clouds
8:58 AM 50.0 °F 39.2 °F 66% 30.15 in 10.0 mi South 17.3 mph 23.0 mph N/A   Clear
9:18 AM 50.0 °F 39.2 °F 66% 30.14 in 10.0 mi South 15.0 mph 24.2 mph N/A   Clear
9:38 AM 51.8 °F 39.2 °F 62% 30.15 in 10.0 mi South 19.6 mph 27.6 mph N/A   Clear
9:58 AM 51.8 °F 41.0 °F 67% 30.14 in 10.0 mi South 19.6 mph 26.5 mph N/A   Mostly Cloudy
10:18 AM 51.8 °F 42.8 °F 71% 30.14 in 10.0 mi South 23.0 mph 31.1 mph N/A   Overcast
10:38 AM 50.0 °F 44.6 °F 82% 30.14 in 7.0 mi South 13.8 mph 25.3 mph N/A   Mostly Cloudy
10:58 AM 50.0 °F 44.6 °F 82% 30.14 in 7.0 mi SSE 16.1 mph 25.3 mph N/A   Overcast
11:18 AM 51.8 °F 46.4 °F 82% 30.13 in 10.0 mi South 18.4 mph 25.3 mph N/A   Mostly Cloudy
11:58 AM 51.8 °F 46.4 °F 82% 30.12 in 7.0 mi SSE 15.0 mph 25.3 mph N/A   Overcast
12:18 PM 51.8 °F 46.4 °F 82% 30.11 in 10.0 mi SSE 17.3 mph 26.5 mph N/A   Overcast
12:38 PM 53.6 °F 46.4 °F 77% 30.09 in 10.0 mi SSE 19.6 mph 29.9 mph N/A   Overcast
12:58 PM 53.6 °F 46.4 °F 77% 30.08 in 10.0 mi SSE 18.4 mph 24.2 mph N/A   Overcast
1:18 PM 53.6 °F 46.4 °F 77% 30.07 in 10.0 mi SSE 13.8 mph 21.9 mph N/A   Overcast
1:38 PM 53.6 °F 46.4 °F 77% 30.06 in 10.0 mi SSE 11.5 mph 17.3 mph N/A   Overcast
1:58 PM 53.6 °F 46.4 °F 77% 30.05 in 10.0 mi SSE 16.1 mph 25.3 mph N/A   Overcast
2:18 PM 55.4 °F 46.4 °F 72% 30.04 in 10.0 mi SSE 12.7 mph 21.9 mph N/A   Mostly Cloudy
2:38 PM 53.6 °F 46.4 °F 77% 30.04 in 10.0 mi SSE 11.5 mph 24.2 mph N/A   Mostly Cloudy
2:58 PM 53.6 °F 46.4 °F 77% 30.04 in 10.0 mi SSE 12.7 mph 25.3 mph N/A   Overcast
3:18 PM 53.6 °F 46.4 °F 77% 30.03 in 10.0 mi SSE 15.0 mph 23.0 mph N/A   Overcast
3:38 PM 53.6 °F 46.4 °F 77% 30.03 in 10.0 mi South 13.8 mph - N/A   Overcast
3:58 PM 53.6 °F 46.4 °F 77% 30.03 in 10.0 mi South 10.4 mph 24.2 mph N/A   Overcast
4:38 PM 51.8 °F 48.2 °F 88% 30.02 in 10.0 mi SSE 9.2 mph - N/A   Overcast
4:58 PM 51.8 °F 48.2 °F 88% 30.02 in 10.0 mi SSE 9.2 mph 17.3 mph N/A   Overcast
5:18 PM 51.8 °F 48.2 °F 88% 30.02 in 7.0 mi South 10.4 mph - N/A   Overcast
5:38 PM 51.8 °F 48.2 °F 88% 30.02 in 7.0 mi SSE 8.1 mph 18.4 mph N/A   Overcast
5:58 PM 51.8 °F 48.2 °F 88% 30.01 in 7.0 mi South 8.1 mph - N/A   Unknown
6:18 PM 51.8 °F 48.2 °F 88% 30.02 in 10.0 mi South 10.4 mph - N/A   Overcast
6:38 PM 51.8 °F 48.2 °F 88% 30.02 in 10.0 mi South 9.2 mph - N/A   Overcast
6:58 PM 51.8 °F 48.2 °F 88% 30.02 in 7.0 mi South 8.1 mph - N/A   Overcast
7:18 PM 51.8 °F 48.2 °F 88% 30.02 in 7.0 mi South 9.2 mph - N/A   Overcast
7:38 PM 51.8 °F 48.2 °F 88% 30.03 in 5.0 mi South 8.1 mph - N/A   Overcast
7:58 PM 50.0 °F 48.2 °F 94% 30.02 in 5.0 mi South 9.2 mph - N/A   Overcast
8:18 PM 50.0 °F 48.2 °F 94% 30.02 in 7.0 mi SSE 8.1 mph - N/A   Overcast
8:58 PM 50.0 °F 48.2 °F 94% 30.01 in 5.0 mi South 9.2 mph - N/A   Overcast
9:18 PM 50.0 °F 48.2 °F 94% 30.01 in 5.0 mi South 8.1 mph - N/A   Overcast
9:38 PM 50.0 °F 48.2 °F 94% 30.00 in 10.0 mi South 11.5 mph - N/A   Overcast
9:58 PM 50.0 °F 48.2 °F 94% 29.99 in 5.0 mi SSE 8.1 mph - N/A   Overcast
10:18 PM 50.0 °F 48.2 °F 94% 29.98 in 7.0 mi SSE 10.4 mph - N/A   Overcast
10:38 PM 50.0 °F 48.2 °F 94% 29.97 in 10.0 mi SSE 9.2 mph - N/A   Overcast
10:58 PM 50.0 °F 48.2 °F 94% 29.96 in 5.0 mi SSE 10.4 mph - N/A   Overcast
11:18 PM 50.0 °F 48.2 °F 94% 29.95 in 7.0 mi SSE 6.9 mph - N/A   Overcast
11:38 PM 50.0 °F 48.2 °F 94% 29.94 in 5.0 mi South 9.2 mph - N/A   Overcast